Powrót do katalogu

STARLINK-38029

AktywnyŁącznośćSSO
NORAD 69752·PAYLOAD·🇺🇸 United States

Wystrzelony Jul 2, 2026 z Vandenberg Space Force Base

Loading…

Następne Przeloty (najbliższe 24 godziny)

TLE

ŚwieżeSource: CelesTrak SupGP

Epoka: Sep 15, 2026, 04:07 UTC

1 69752C 26150P   26258.17201389 -.00082539  00000+0 -25632-2 0  2583
2 69752  97.2850  97.2318 0001801  91.9536 250.0643 15.33468184    19

Śledź STARLINK-38029 w czasie rzeczywistym z AllMySat

Download on the App Store